[[{"header":{"parameterUnit":"m.s-1","parameterCategory":1,"la1":30.2991,"la2":30.254,"lo1":-89.0895,"lo2":-89.0444,"dy":0.0017,"dx":0.0017,"nx":28,"ny":28,"refTime":"2024-03-03T09:00:00:Z","depth":0,"parameterNumber":2,"parameterNumberName":"U-component_of_WINDS"},"data":[0,0,0,0,0,0,0,0,0,0,0,0,0,0,0,0,0,0,0,0,0,0,0,0,0,0,0,0,0,0,0,0,0,0,0,0,0,0,0,0,0,0,0,0,0,0,0,0,0,0,0,0,0,0,0,0,0,0,-3.3267,-3.3267,0,-3.3265,-3.3265,-3.3265,-3.3179,-3.3177,-3.3175,-3.3173,-3.3171,-3.3172,-3.3174,0,0,0,0,0,0,0,0,0,0,0,0,0,-3.3199,-3.32,-3.3267,-3.3267,-3.3267,-3.3265,-3.3265,-3.3265,-3.3179,-3.3177,-3.3174,-3.3172,-3.317,-3.3172,-3.3175,0,0,0,0,0,0,0,0,0,0,0,0,0,-3.3216,-3.3201,-3.3267,-3.3224,-3.322,-3.3265,-3.3265,-3.3265,-3.318,-3.3177,-3.3173,-3.317,-3.3169,-3.3172,-3.3175,-3.326,0,0,-3.3184,-3.3186,0,0,0,0,0,0,0,0,-3.3215,-3.3218,-3.323,-3.3227,-3.3223,-3.3219,-3.324,-3.3263,-3.3181,-3.3195,-3.3172,-3.3169,-3.3189,-3.319,-3.3197,-3.326,-3.326,-3.3185,-3.3186,-3.3188,-3.3189,0,0,0,0,0,0,0,-3.3214,-3.3218,-3.3266,-3.3231,-3.3226,-3.3205,-3.3204,-3.3244,-3.3211,-3.3194,-3.3188,-3.3189,-3.3187,-3.3195,-3.3197,-3.326,-3.3184,-3.3187,-3.3189,-3.319,-3.3394,-3.3398,0,0,0,0,0,0,-3.3218,-3.3217,-3.3266,-3.3266,-3.3211,-3.3209,-3.3208,-3.3224,-3.321,-3.3205,-3.3191,-3.3185,-3.3191,-3.3193,-3.3196,-3.3295,-3.3188,-3.319,-3.3192,-3.3391,-3.3395,-3.3399,0,0,0,0,0,0,-3.3217,-3.3224,-3.3266,-3.324,-3.3244,-3.3214,-3.3232,-3.3225,-3.3233,-3.3209,-3.3202,-3.3205,-3.3189,-3.3192,-3.3245,-3.3294,-3.3192,-3.3195,-3.3386,-3.3392,-3.3397,-3.3494,0,0,0,0,0,0,-3.3216,-3.3224,-3.3255,-3.3241,-3.3246,-3.3315,-3.3235,-3.3228,-3.3239,-3.323,-3.322,-3.3215,-3.3186,-3.3241,-3.3248,-3.3296,-3.3197,-3.3382,-3.3389,-3.3395,-3.3486,-3.3502,-3.3516,0,0,0,0,0,-3.3213,-3.3282,-3.3257,-3.3264,-3.3285,-3.3318,-3.332,-3.3285,-3.3243,-3.3274,-3.3259,-3.3216,-3.3288,-3.3247,-3.3255,-3.3304,-3.3379,-3.3387,-3.3395,-3.348,-3.3499,-3.3515,0,0,0,0,0,0,-3.3302,-3.328,-3.3251,-3.3318,-3.3321,-3.3303,-3.3342,-3.3307,-3.3321,-3.3312,-3.3269,-3.3267,-3.3327,-3.3321,-3.3276,-3.3387,-3.3326,-3.3336,-3.3388,-3.3406,-3.342,-3.342,-3.3199,0,0,0,0,0,-3.333,-3.3358,-3.3337,-3.3398,-3.3401,-3.3372,-3.3385,-3.3358,-3.3359,-3.336,-3.3348,-3.3351,-3.3374,-3.339,-3.341,-3.3486,-3.3483,-3.3524,-3.3539,-3.3551,-3.3559,-3.3599,-3.3617,-3.3426,-3.3425,-3.3425,0,0,-3.3386,-3.3378,-3.3398,-3.3416,-3.3415,-3.3446,-3.3373,-3.3409,-3.3431,-3.3365,-3.3414,-3.3406,-3.3407,-3.3472,-3.35,-3.3468,-3.3612,-3.3561,-3.3571,-3.3573,-3.3609,-3.3628,-3.3644,-3.3431,-3.343,-3.3429,0,0,-3.3504,-3.3501,-3.3551,-3.3552,-3.3552,-3.3532,-3.3545,-3.3534,-3.3526,-3.3575,-3.3526,-3.3553,-3.3594,-3.3596,-3.3603,-3.3726,-3.3686,-3.3734,-3.3809,-3.3849,-3.3864,-3.3877,-3.392,-3.3936,-3.3743,-3.3743,-3.3743,0,-3.3574,-3.3619,-3.3582,-3.3621,-3.363,-3.3573,-3.3624,-3.3627,-3.3633,-3.3641,-3.3606,-3.3657,-3.3654,-3.3718,-3.3749,-3.3756,-3.3769,-3.3733,-3.3864,-3.3877,-3.3889,-3.3929,-3.3946,-3.3748,-3.3748,-3.3747,-3.3747,0,-3.3705,-3.3737,-3.3777,-3.3785,-3.38,-3.3845,-3.3815,-3.3834,-3.3808,-3.3792,-3.3843,-3.3838,-3.3855,-3.387,-3.3843,-3.3931,-3.3912,-3.3872,-3.3809,-3.3913,-3.3951,-3.3966,-3.3757,-3.3755,-3.3753,-3.3751,0,0,-3.3875,-3.3864,-3.3879,-3.3883,-3.3879,-3.3903,-3.3947,-3.3965,-3.3982,-3.399,-3.4024,-3.4062,-3.4025,-3.4033,-3.4007,-3.4042,-3.4139,-3.3997,-3.3997,-3.4023,-3.4236,-3.4264,-3.4283,-3.4114,-3.4117,-3.4119,-3.4235,0,-3.3988,-3.4061,-3.403,-3.4105,-3.4134,-3.4082,-3.412,-3.4123,-3.411,-3.4134,-3.412,-3.4147,-3.4097,-3.4101,-3.4134,-3.412,-3.4181,-3.4112,-3.4146,-3.4147,-3.4145,-3.4302,-3.4332,-3.4441,-3.4249,-3.4252,-3.4254,0,-3.4129,-3.4143,-3.4221,-3.4214,-3.4225,-3.4259,-3.4274,-3.4298,-3.43,-3.4289,-3.4299,-3.4266,-3.4308,-3.4249,-3.4307,-3.426,-3.4273,-3.4269,-3.4273,-3.4272,-3.4205,-3.4305,-3.4475,-3.4491,-3.4276,-3.4275,-3.4273,0,-3.4244,-3.4283,-3.4334,-3.4339,-3.4332,-3.4358,-3.4356,-3.4355,-3.4369,-3.4382,-3.4391,-3.4409,-3.4419,-3.4435,-3.4408,-3.4367,-3.447,-3.4408,-3.4461,-3.4462,-3.4483,-3.4481,-3.4656,-3.4495,-3.4495,-3.4494,-3.4494,0,-3.4372,-3.4422,-3.4386,-3.4418,-3.4472,-3.4438,-3.4493,-3.4486,-3.4486,-3.4516,-3.4473,-3.4502,-3.4466,-3.4492,-3.4471,-3.4522,-3.4528,-3.4519,-3.4513,-3.4522,-3.4523,-3.4528,-3.4519,-3.4499,-3.4498,-3.4497,-3.4496,0,-3.4509,-3.4486,-3.4539,-3.453,-3.4528,-3.4569,-3.456,-3.459,-3.4576,-3.4614,-3.4621,-3.4599,-3.4628,-3.4603,-3.4631,-3.4617,-3.4685,-3.4668,-3.4684,-3.4678,-3.4733,-3.4727,-3.4915,-3.4937,-3.4764,-3.4765,-3.4767,0,-3.459,-3.4628,-3.4622,-3.4639,-3.4641,-3.4669,-3.4682,-3.4651,-3.4667,-3.4674,-3.4703,-3.4728,-3.4746,-3.4794,-3.478,-3.4802,-3.4784,-3.4849,-3.4787,-3.4795,-3.4783,-3.4781,-3.4784,-3.486,-3.4862,-3.4864,-3.4866,0,-3.4738,-3.4726,-3.4747,-3.4766,-3.4784,-3.4797,-3.4806,-3.4823,-3.4791,-3.4812,-3.484,-3.4855,-3.4884,-3.4909,-3.4926,-3.4925,-3.489,-3.4886,-3.4899,-3.4907,-3.4914,-3.4909,-3.4716,-3.4881,-3.4879,-3.4878,-3.4877,-3.4877,-3.4848,-3.4879,-3.4881,-3.4906,-3.4911,-3.4921,-3.4948,-3.4939,-3.4962,-3.4983,-3.4964,-3.4998,-3.5002,-3.5021,-3.5025,-3.5052,-3.5025,-3.5044,-3.5049,-3.5053,-3.5061,-3.4912,-3.5055,-3.5055,-3.5054,-3.5054,-3.5053,0,-3.4992,-3.4991,-3.5016,-3.5031,-3.5052,-3.5019,-3.5029,-3.5048,-3.5079,-3.5085,-3.5104,-3.5138,-3.5163,-3.5153,-3.5175,-3.5199,-3.5184,-3.5206,-3.5202,-3.5203,-3.5084,-3.507,-3.5218,-3.5218,-3.5218,-3.5217,-3.5217,-3.5217,-3.5069,-3.512,-3.5108,-3.5161,-3.516,-3.5193,-3.5202,-3.5212,-3.5216,-3.5256,-3.5277,-3.527,-3.527,-3.5292,-3.5314,-3.5311,-3.532,-3.5348,-3.5338,-3.5227,-3.5211,-3.5195,-3.5181,-3.535,-3.5351,-3.5454,-3.5455,-3.5456]},{"header":{"parameterUnit":"m.s-1","parameterCategory":1,"la1":30.2991,"la2":30.254,"lo1":-89.0895,"lo2":-89.0444,"dy":0.0017,"dx":0.0017,"nx":28,"ny":28,"refTime":"2024-03-03T09:00:00:Z","depth":0,"parameterNumber":3,"parameterNumberName":"V-component_of_WINDS"},"data":[0,0,0,0,0,0,0,0,0,0,0,0,0,0,0,0,0,0,0,0,0,0,0,0,0,0,0,0,0,0,0,0,0,0,0,0,0,0,0,0,0,0,0,0,0,0,0,0,0,0,0,0,0,0,0,0,0,0,1.2725,1.2725,0,1.2763,1.2764,1.2764,1.2836,1.2837,1.2839,1.284,1.2873,1.2873,1.2873,0,0,0,0,0,0,0,0,0,0,0,0,0,1.2709,1.2709,1.2725,1.2725,1.2726,1.2763,1.2764,1.2764,1.2836,1.2837,1.2839,1.2841,1.2874,1.2873,1.2873,0,0,0,0,0,0,0,0,0,0,0,0,0,1.2729,1.2709,1.2725,1.2766,1.277,1.2763,1.2764,1.2764,1.2835,1.2837,1.284,1.2841,1.2874,1.2873,1.2872,1.2826,0,0,1.2871,1.287,0,0,0,0,0,0,0,0,1.2727,1.2729,1.276,1.2763,1.2768,1.2797,1.2771,1.2785,1.2835,1.281,1.284,1.2843,1.2846,1.2848,1.285,1.2828,1.2829,1.287,1.287,1.287,1.287,0,0,0,0,0,0,0,1.2726,1.2728,1.274,1.276,1.2765,1.2781,1.2786,1.2774,1.2816,1.2813,1.2818,1.2822,1.2849,1.285,1.2851,1.283,1.287,1.287,1.287,1.2869,1.2773,1.2771,0,0,0,0,0,0,1.2719,1.2726,1.2739,1.2741,1.2753,1.278,1.2786,1.2785,1.2816,1.2823,1.282,1.2825,1.2851,1.2852,1.2853,1.2802,1.287,1.2869,1.2869,1.2775,1.2773,1.277,0,0,0,0,0,0,1.2719,1.272,1.2737,1.2735,1.2739,1.2778,1.2777,1.2785,1.2787,1.2822,1.2829,1.2815,1.2852,1.2854,1.2833,1.2804,1.2869,1.2868,1.2778,1.2774,1.2771,1.2698,0,0,0,0,0,0,1.2718,1.2719,1.2703,1.2734,1.2739,1.2718,1.2775,1.2784,1.2787,1.2794,1.2819,1.2825,1.2854,1.2834,1.2832,1.2804,1.2868,1.2781,1.2776,1.2772,1.2704,1.2693,1.2684,0,0,0,0,0,1.2717,1.2679,1.2702,1.2703,1.2719,1.2716,1.2718,1.2755,1.2784,1.2767,1.279,1.2824,1.2807,1.2831,1.283,1.2801,1.2783,1.2777,1.2773,1.2708,1.2695,1.2684,0,0,0,0,0,0,1.264,1.2684,1.2709,1.2681,1.2694,1.2728,1.2708,1.274,1.2744,1.275,1.2793,1.2798,1.2772,1.2784,1.281,1.2759,1.28,1.2795,1.2751,1.2739,1.273,1.2727,1.2867,0,0,0,0,0,1.2621,1.2616,1.2654,1.2625,1.2631,1.2668,1.2668,1.2695,1.271,1.2716,1.2737,1.2748,1.2746,1.2744,1.2743,1.2706,1.2713,1.2686,1.2676,1.2668,1.2662,1.2645,1.2633,1.2754,1.2754,1.2754,0,0,1.2579,1.2602,1.2596,1.261,1.2624,1.2617,1.2672,1.2662,1.2657,1.2714,1.2696,1.2712,1.2728,1.2699,1.2688,1.2709,1.2631,1.2662,1.2655,1.2654,1.2638,1.2627,1.2617,1.2751,1.2751,1.2752,0,0,1.2499,1.2516,1.2495,1.2508,1.253,1.2555,1.255,1.258,1.2593,1.2577,1.2619,1.2613,1.2608,1.2619,1.2623,1.255,1.2581,1.2548,1.2497,1.2479,1.2469,1.2461,1.2435,1.2425,1.2543,1.2543,1.2542,0,1.2444,1.2437,1.2479,1.2468,1.2472,1.2526,1.2504,1.2514,1.2533,1.2535,1.2559,1.2555,1.257,1.2545,1.2527,1.2529,1.2524,1.2545,1.2467,1.2459,1.2452,1.2428,1.2418,1.2538,1.2539,1.2539,1.254,0,1.2368,1.2363,1.2343,1.2363,1.2365,1.2348,1.2387,1.2384,1.2411,1.2434,1.2417,1.2437,1.2442,1.2438,1.2463,1.2416,1.2429,1.246,1.2502,1.2436,1.2414,1.2405,1.2533,1.2534,1.2535,1.2536,0,0,1.224,1.2286,1.2277,1.2288,1.2316,1.2312,1.2297,1.2304,1.2301,1.2313,1.2301,1.2297,1.2326,1.2331,1.2358,1.2343,1.2284,1.2375,1.2376,1.2358,1.2234,1.221,1.2199,1.2305,1.2304,1.2302,1.2232,0,1.2166,1.2146,1.2184,1.2154,1.2149,1.2201,1.2188,1.2203,1.2225,1.2223,1.2246,1.2242,1.2281,1.2284,1.2271,1.2294,1.2259,1.2299,1.2294,1.2293,1.2288,1.2187,1.2162,1.2095,1.2224,1.2223,1.2221,0,1.2077,1.2088,1.2057,1.2089,1.2089,1.2077,1.2087,1.2085,1.2104,1.212,1.2127,1.216,1.2147,1.2189,1.2171,1.2197,1.2198,1.2208,1.2207,1.2207,1.2253,1.2185,1.2075,1.2064,1.2208,1.2209,1.221,0,1.1987,1.1993,1.1976,1.1983,1.202,1.201,1.2025,1.2045,1.2048,1.2057,1.2059,1.2065,1.2068,1.2071,1.2105,1.2132,1.2083,1.2128,1.2096,1.2095,1.2082,1.2082,1.197,1.2083,1.2083,1.2083,1.2083,0,1.1901,1.188,1.1937,1.1926,1.1905,1.1949,1.1926,1.1945,1.1964,1.1957,1.2001,1.1994,1.2039,1.2036,1.2062,1.2044,1.2044,1.2057,1.2064,1.2053,1.2051,1.2053,1.2058,1.208,1.2081,1.2081,1.2082,0,1.1796,1.1833,1.1818,1.1855,1.1864,1.1846,1.1877,1.1868,1.1893,1.1884,1.1885,1.1923,1.1922,1.1956,1.1961,1.1979,1.1949,1.1964,1.1943,1.1948,1.1914,1.1917,1.1799,1.1786,1.1906,1.1905,1.1904,0,1.1738,1.1724,1.176,1.176,1.1773,1.1772,1.1776,1.1819,1.182,1.1841,1.183,1.1833,1.1838,1.1834,1.1861,1.1866,1.1881,1.184,1.1882,1.1872,1.1881,1.1881,1.188,1.183,1.1829,1.1828,1.1827,0,1.1632,1.1652,1.1656,1.1667,1.1671,1.1681,1.1694,1.1691,1.1738,1.1737,1.1739,1.1742,1.175,1.1752,1.1762,1.1775,1.1808,1.1814,1.1806,1.1794,1.1783,1.1789,1.1919,1.1816,1.1817,1.1818,1.1818,1.1819,1.1549,1.154,1.1564,1.1568,1.1583,1.1594,1.1588,1.1614,1.1616,1.1626,1.1651,1.1648,1.1668,1.1685,1.1696,1.1693,1.1713,1.1703,1.17,1.1697,1.1691,1.1784,1.1695,1.1695,1.1696,1.1696,1.1696,0,1.1445,1.1464,1.1468,1.1486,1.1489,1.1522,1.1539,1.1538,1.1536,1.1552,1.1557,1.1558,1.1561,1.159,1.1596,1.1588,1.1604,1.1588,1.1589,1.1591,1.1672,1.1678,1.1576,1.1576,1.1576,1.1576,1.1576,1.1576,1.1392,1.1378,1.14,1.1394,1.1413,1.1412,1.1418,1.1429,1.1442,1.1443,1.1446,1.1466,1.1487,1.1495,1.1499,1.1507,1.1507,1.1487,1.15,1.1574,1.1586,1.1597,1.1602,1.1487,1.1486,1.142,1.1419,1.1419]}]]